K5NWZ Weather Reports


time (UTC)temp
F
wind
direction
speed
knots
gust
knots
rain 1hr
in
rain 24hr
in
rain mn
in
humidity
%
barometer
mb
20260505173449 36 322 0.0 0.0 0.12 0.60 0.60 94 1023.7
20260505172946 36 3 0.9 1.7 0.14 0.59 0.59 94 1023.7
20260505172445 37 329 0.0 0.0 0.19 0.58 0.58 94 1024.0
20260505171944 37 310 0.0 0.9 0.12 0.56 0.56 93 1024.1
20260505171441 36 217 0.9 1.7 0.12 0.54 0.54 93 1024.4
20260505170937 37 268 0.0 0.9 0.24 0.54 0.54 93 1024.4
20260505170434 37 309 0.0 0.9 0.24 0.52 0.52 93 1024.2
20260505165930 37 294 0.0 0.9 0.17 0.49 0.49 93 1024.1
20260505165426 36 319 0.0 0.9 0.26 0.48 0.48 94 1024.2
20260505164921 36 295 0.0 0.0 0.26 0.46 0.46 94 1024.1
20260505164418 36 270 0.0 0.9 0.28 0.44 0.44 95 1024.1
20260505163916 36 295 0.9 0.9 0.24 0.42 0.42 94 1024.1
20260505163415 36 194 0.9 1.7 0.12 0.39 0.39 95 1024.1
20260505162914 36 322 0.0 0.0 0.24 0.38 0.38 95 1024.0
20260505162409 35 309 0.0 0.0 0.19 0.37 0.37 95 1024.2
20260505161906 35 317 0.0 0.9 0.00 0.34 0.34 95 1024.1
20260505161403 35 312 0.9 1.7 0.00 0.34 0.34 95 1024.2
20260505160900 35 260 1.7 1.7 0.00 0.34 0.34 95 1024.5
20260505160358 36 307 0.9 0.9 0.00 0.34 0.34 95 1024.6
20260505153332 35 300 0.0 0.0 0.00 0.34 0.34 96 1024.7
20260505152829 34 312 0.0 0.0 0.00 0.34 0.34 96 1024.6
20260505152326 34 311 0.0 0.9 0.00 0.34 0.34 96 1024.5
20260505151825 34 283 0.9 0.9 0.00 0.34 0.34 96 1024.7
20260505151322 34 305 0.0 0.0 0.00 0.34 0.34 96 1024.7
20260505150819 34 311 0.0 0.0 0.00 0.34 0.34 96 1024.4
20260505150316 34 291 0.0 0.9 0.00 0.34 0.34 96 1024.6
20260505140241 33 308 0.0 0.0 0.00 0.34 0.34 96 1024.5
20260505130204 32 315 0.0 0.0 0.00 0.34 0.34 95 1024.1
20260505124654 32 313 0.0 0.0 0.00 0.34 0.34 95 1024.0
20260505124151 32 313 0.0 0.0 0.00 0.34 0.34 95 1024.0
20260505123647 32 315 0.0 0.0 0.00 0.34 0.34 95 1023.9
20260505123144 32 311 0.9 0.9 0.00 0.34 0.34 95 1023.7
20260505122640 33 309 0.0 0.0 0.00 0.34 0.34 95 1023.7
20260505122138 33 306 0.9 0.9 0.00 0.34 0.34 95 1023.7
20260505121634 33 314 0.0 0.9 0.00 0.34 0.34 95 1023.7
20260505121131 33 312 0.9 0.9 0.07 0.34 0.34 95 1023.5
20260505120627 34 312 0.9 1.7 0.07 0.34 0.34 95 1023.8
20260505120123 34 296 0.9 0.9 0.00 0.33 0.33 95 1023.7
20260505115617 34 304 0.9 1.7 0.05 0.33 0.33 95 1023.5
20260505115115 34 327 0.0 2.6 0.05 0.33 0.33 95 1023.7
20260505114612 34 306 1.7 3.5 0.00 0.32 0.32 95 1023.3
20260505114108 34 310 0.9 2.6 0.00 0.32 0.32 95 1023.5
20260505113605 34 316 0.9 3.5 0.00 0.32 0.32 95 1023.3
20260505113102 34 316 1.7 3.5 0.00 0.32 0.32 95 1023.4
20260505112558 34 323 1.7 6.1 0.07 0.32 0.32 95 1023.3
20260505112056 34 323 1.7 6.1 0.07 0.32 0.32 95 1023.3
20260505111555 34 305 3.5 3.5 0.00 0.31 0.31 95 1023.2
20260505111052 33 346 1.7 3.5 0.00 0.31 0.31 95 1023.2
20260505110548 33 321 1.7 2.6 0.05 0.31 0.31 95 1023.3
20260505102015 35 316 3.5 6.1 0.12 0.29 0.29 94 1022.8
20260505101514 35 311 1.7 6.1 0.12 0.28 0.28 94 1022.7
20260505101009 36 306 2.6 7.0 0.12 0.27 0.27 94 1022.7
20260505100507 36 310 2.6 5.2 0.12 0.26 0.26 94 1022.7
20260505100003 36 330 2.6 8.7 0.12 0.25 0.25 94 1022.7
20260505095500 37 330 1.7 7.0 0.07 0.24 0.24 94 1022.5
20260505094955 37 2 2.6 8.7 0.00 0.23 0.23 94 1022.6
20260505094453 37 306 6.1 11.3 0.00 0.23 0.23 94 1022.5
20260505093949 37 298 1.7 7.8 0.05 0.23 0.23 94 1022.6
20260505093445 37 310 2.6 7.8 0.00 0.22 0.22 94 1022.5
20260505092943 37 323 3.5 5.2 0.07 0.22 0.22 94 1022.4
20260505092440 38 271 2.6 7.0 0.07 0.22 0.22 94 1022.3
20260505091938 39 322 6.1 8.7 0.00 0.21 0.21 94 1022.5
20260505091435 39 341 1.7 7.8 0.07 0.21 0.21 94 1022.4
20260505090933 39 262 1.7 7.8 0.05 0.20 0.20 94 1022.1
20260505090431 40 328 2.6 3.5 0.05 0.20 0.20 94 1022.0
20260505085928 40 9 3.5 6.1 0.07 0.19 0.19 94 1022.1
20260505085426 40 329 3.5 5.2 0.07 0.19 0.19 93 1022.4
20260505084924 41 308 2.6 2.6 0.05 0.18 0.18 93 1022.1
20260505084422 41 310 5.2 7.0 0.05 0.18 0.18 93 1022.0
20260505083919 41 342 0.9 5.2 0.12 0.17 0.17 93 1021.9
20260505083417 41 318 2.6 3.5 0.19 0.17 0.17 93 1022.0
20260505082913 42 323 0.9 1.7 0.19 0.15 0.15 93 1021.9
20260505082409 42 323 1.7 2.6 0.17 0.14 0.14 93 1021.9
20260505081906 42 314 3.5 6.1 0.05 0.12 0.12 93 1021.9
20260505081402 42 332 2.6 3.5 0.07 0.11 0.11 93 1021.8
20260505080859 42 328 1.7 6.1 0.07 0.11 0.11 93 1021.8
20260505080355 42 310 1.7 2.6 0.00 0.10 0.10 93 1021.8
20260505075851 42 326 0.9 2.6 0.00 0.10 0.10 92 1021.8
20260505075348 42 291 0.9 2.6 0.00 0.10 0.10 92 1021.9
20260505074845 42 329 0.9 3.5 0.05 0.10 0.10 92 1021.8
20260505074342 42 303 3.5 5.2 0.05 0.10 0.10 92 1021.8
20260505073840 42 349 2.6 6.1 0.00 0.09 0.09 92 1021.6
20260505073337 43 345 4.3 6.1 0.00 0.09 0.09 92 1021.7
20260505072834 42 5 2.6 6.1 0.00 0.09 0.09 91 1021.6
20260505072330 43 300 2.6 3.5 0.07 0.09 0.09 91 1021.7
20260505071826 43 322 4.3 5.2 0.14 0.09 0.09 91 1021.4
20260505071323 43 358 2.6 3.5 0.12 0.08 0.08 91 1021.8
20260505070821 43 349 2.6 5.2 0.24 0.07 0.07 90 1021.8
20260505070318 43 326 3.5 7.8 0.17 0.05 0.05 89 1022.0
20260505065812 43 290 4.3 7.8 0.12 0.03 0.03 88 1021.9
20260505065309 44 289 1.7 3.5 0.12 0.02 0.02 87 1021.9
20260505064807 44 312 1.7 5.2 0.05 0.01 0.01 86 1021.8
20260505064303 44 1 1.7 6.1 0.00 0.00 0.00 84 1021.7
20260505063801 45 322 2.6 8.7 0.00 0.00 0.00 83 1021.3
20260505063258 45 350 0.9 7.0 0.00 0.00 0.00 82 1021.6
20260505062754 46 312 6.1 8.7 0.00 0.00 0.00 81 1021.6
20260505062252 46 330 2.6 7.0 0.00 0.00 0.00 81 1021.4
20260505061748 46 318 1.7 6.1 0.00 0.00 0.00 82 1021.3
20260505061246 47 267 1.7 8.7 0.00 0.00 0.00 81 1021.2
20260505060743 47 7 3.5 9.6 0.00 0.00 0.00 78 1021.0
20260505060236 48 333 2.6 7.8 0.00 0.00 0.00 76 1021.1
20260505055730 50 277 3.5 5.2 0.00 0.09 0.09 85 1021.1
20260505055227 50 294 3.5 5.2 0.00 0.09 0.09 84 1020.6
20260505054725 49 302 0.0 0.0 0.00 0.09 0.09 84 1020.7
20260505054222 49 298 0.0 0.0 0.00 0.09 0.09 85 1020.4
20260505053720 49 302 0.0 0.0 0.00 0.09 0.09 85 1020.4
20260505053216 49 302 0.0 0.0 0.00 0.09 0.09 85 1020.3
20260505052714 49 302 0.0 0.9 0.00 0.09 0.09 85 1020.3
20260505052211 50 311 0.0 0.0 0.00 0.09 0.09 85 1020.4
20260505051707 50 315 0.0 0.0 0.00 0.09 0.09 84 1019.9
20260505051205 50 305 0.0 0.0 0.00 0.09 0.09 84 1019.8
20260505050703 50 287 0.0 0.0 0.00 0.09 0.09 83 1020.2
20260505050202 50 298 0.0 0.9 0.00 0.09 0.09 83 1020.1
20260505041636 49 296 0.0 0.9 0.00 0.09 0.09 84 1019.9
20260505041134 50 314 0.0 0.0 0.00 0.09 0.09 85 1019.8
20260505040630 50 301 0.0 0.9 0.00 0.09 0.09 84 1019.9
20260505040128 50 286 0.9 2.6 0.00 0.09 0.09 85 1019.7
20260505035624 50 303 0.0 0.9 0.00 0.09 0.09 85 1019.6
20260505035120 50 284 0.0 1.7 0.00 0.09 0.09 84 1019.7
20260505034617 50 219 0.9 1.7 0.00 0.09 0.09 85 1019.7
20260505034114 50 185 1.7 3.5 0.00 0.09 0.09 85 1019.6
20260505033611 50 266 0.9 2.6 0.00 0.09 0.09 85 1019.7
20260505033109 50 191 2.6 3.5 0.00 0.09 0.09 85 1019.7
20260505032607 50 234 0.9 2.6 0.00 0.09 0.09 87 1019.8
20260505032103 50 204 1.7 1.7 0.00 0.09 0.09 88 1019.4
20260505031601 50 212 0.0 1.7 0.00 0.09 0.09 88 1019.4
20260505031056 50 246 0.9 0.9 0.00 0.09 0.09 88 1019.6
20260505030554 50 276 0.0 0.9 0.00 0.09 0.09 88 1019.5
20260505030049 50 281 0.0 1.7 0.00 0.09 0.09 87 1019.2
20260505025545 49 293 0.0 0.9 0.00 0.09 0.09 89 1019.4
20260505025045 50 294 0.0 0.0 0.00 0.09 0.09 89 1019.4
20260505024541 49 283 0.0 0.0 0.00 0.09 0.09 89 1018.9
20260505024038 49 279 0.0 0.0 0.00 0.09 0.09 90 1018.9
20260505023535 49 312 0.0 0.0 0.00 0.09 0.09 89 1018.9
20260505023033 49 268 0.0 0.0 0.00 0.09 0.09 89 1018.9
20260505022530 50 333 0.0 0.9 0.00 0.09 0.09 88 1018.7
20260505022027 50 304 0.0 0.0 0.00 0.09 0.09 86 1018.8
20260505021524 50 208 2.6 2.6 0.00 0.09 0.09 86 1018.7
20260505021020 50 226 1.7 2.6 0.00 0.09 0.09 87 1018.9
20260505020514 50 199 1.7 2.6 0.00 0.09 0.09 86 1018.8
20260505020012 50 212 0.9 2.6 0.00 0.09 0.09 87 1018.8
20260505015509 50 181 1.7 2.6 0.00 0.09 0.09 86 1019.0
20260505015006 50 304 0.0 0.0 0.00 0.09 0.09 86 1018.8
20260505014503 50 276 0.0 0.9 0.00 0.09 0.09 85 1018.8
20260505014000 50 297 0.0 0.9 0.00 0.09 0.09 86 1018.9
20260505013457 50 303 0.9 0.9 0.00 0.09 0.09 86 1019.0
20260505012954 50 329 0.9 0.9 0.00 0.09 0.09 85 1019.1
20260505012452 50 303 0.9 0.9 0.00 0.09 0.09 84 1018.8
20260505011949 50 181 0.9 1.7 0.00 0.09 0.09 84 1018.9
20260505011444 50 255 0.9 3.5 0.07 0.09 0.09 86 1018.9
20260505010942 50 264 1.7 2.6 0.00 0.08 0.08 87 1019.1
20260505010437 50 204 2.6 3.5 0.00 0.08 0.08 86 1018.9
20260505005934 50 273 1.7 2.6 0.05 0.08 0.08 86 1018.9
20260505005430 50 257 0.9 1.7 0.12 0.08 0.08 85 1018.9
20260505004928 51 289 2.6 3.5 0.12 0.07 0.07 84 1018.7
20260505004424 52 257 1.7 3.5 0.05 0.06 0.06 80 1018.8
20260505003922 52 283 2.6 5.2 0.07 0.05 0.05 78 1018.8
20260505003419 53 311 1.7 5.2 0.07 0.05 0.05 76 1018.9
20260505002915 54 316 3.5 7.0 0.00 0.04 0.04 70 1018.8
20260505002411 54 313 0.0 0.9 0.00 0.04 0.04 75 1018.8
20260505001910 54 301 0.0 0.9 0.00 0.04 0.04 76 1018.9
20260505001407 54 273 0.9 1.7 0.00 0.04 0.04 73 1018.5
20260505000904 53 304 0.9 1.7 0.00 0.04 0.04 80 1018.9
20260505000402 53 299 0.0 0.9 0.00 0.04 0.04 80 1018.7
20260504235858 53 283 0.9 0.9 0.00 0.04 0.04 76 1018.7
20260504235355 53 106 0.9 0.9 0.00 0.04 0.04 79 1018.4
20260504234851 53 239 0.9 0.9 0.07 0.04 0.04 76 1018.4
20260504234349 54 176 1.7 2.6 0.12 0.04 0.04 74 1018.3
20260504233846 53 54 1.7 2.6 0.05 0.03 0.03 67 1018.7
20260504233341 54 281 0.9 1.7 0.07 0.02 0.02 65 1018.4
20260504232838 56 195 2.6 6.1 0.05 0.01 0.01 60 1018.4
20260504232336 58 136 7.0 8.7 0.05 0.01 0.01 56 1018.8
20260504231832 61 286 1.7 5.2 0.00 0.00 0.00 46 1018.3
20260504231329 62 296 0.0 0.9 0.00 0.00 0.00 43 1018.1
20260504230825 62 290 1.7 6.1 0.00 0.00 0.00 40 1017.5
20260504230323 62 308 0.0 1.7 0.00 0.00 0.00 38 1017.6
20260504225822 63 262 1.7 5.2 0.00 0.00 0.00 37 1017.6
20260504225317 63 303 0.0 1.7 0.00 0.00 0.00 37 1017.1
20260504224815 63 306 0.9 5.2 0.00 0.00 0.00 36 1017.0
20260504224312 64 321 3.5 7.0 0.00 0.00 0.00 36 1016.8
20260504223808 64 288 3.5 8.7 0.00 0.00 0.00 36 1017.0
20260504223304 65 288 2.6 6.1 0.00 0.00 0.00 35 1016.9
20260504222801 66 346 4.3 7.8 0.00 0.00 0.00 33 1016.9
20260504222258 67 333 4.3 7.0 0.00 0.00 0.00 34 1016.9
20260504221755 67 264 1.7 8.7 0.00 0.00 0.00 35 1017.1
20260504221252 67 311 4.3 6.1 0.00 0.00 0.00 34 1016.8
20260504220749 66 318 5.2 6.1 0.00 0.00 0.00 35 1017.1
20260504220246 66 318 0.9 2.6 0.00 0.00 0.00 37 1017.0
20260504215743 64 12 2.6 2.6 0.00 0.00 0.00 38 1017.3
20260504215240 64 0 0.9 0.9 0.00 0.00 0.00 37 1017.6
20260504214736 63 296 2.6 3.5 0.00 0.00 0.00 38 1017.6
20260504214232 63 359 1.7 1.7 0.00 0.00 0.00 40 1017.6
20260504213729 62 294 1.7 2.6 0.00 0.00 0.00 40 1017.6
20260504213225 62 12 0.9 1.7 0.00 0.00 0.00 39 1017.5
20260504212723 62 352 0.0 2.6 0.00 0.00 0.00 39 1017.8
20260504212219 62 315 0.9 0.9 0.00 0.00 0.00 40 1017.7
20260504211717 62 273 1.7 3.5 0.00 0.00 0.00 40 1017.7
20260504211213 62 306 2.6 5.2 0.00 0.00 0.00 41 1017.7
20260504210710 62 285 3.5 8.7 0.00 0.00 0.00 41 1017.8
20260504210207 63 315 8.7 13.9 0.00 0.00 0.00 40 1017.6
20260504205704 64 278 7.8 11.3 0.00 0.00 0.00 37 1017.6
20260504205201 64 301 4.3 13.0 0.00 0.00 0.00 36 1017.5
20260504204700 64 325 5.2 7.0 0.00 0.00 0.00 35 1017.7
20260504204159 64 146 2.6 8.7 0.00 0.00 0.00 37 1017.6
20260504203657 64 356 3.5 7.0 0.00 0.00 0.00 35 1017.4
20260504203154 63 293 1.7 11.3 0.00 0.00 0.00 34 1017.1
20260504202649 63 287 4.3 5.2 0.00 0.00 0.00 36 1017.3
20260504202146 63 303 4.3 11.3 0.00 0.00 0.00 36 1017.4
20260504201643 63 291 5.2 8.7 0.00 0.00 0.00 37 1017.1
20260504201140 62 30 4.3 13.0 0.00 0.00 0.00 38 1017.7
20260504200637 62 302 3.5 9.6 0.00 0.00 0.00 37 1017.6
20260504200134 62 325 5.2 13.0 0.00 0.00 0.00 37 1017.7
20260504195630 63 312 7.8 20.9 0.00 0.00 0.00 38 1017.7
20260504195126 64 266 5.2 14.8 0.00 0.00 0.00 35 1017.4
20260504194623 65 306 4.3 13.0 0.00 0.00 0.00 32 1017.4
20260504194119 66 323 8.7 13.9 0.00 0.00 0.00 28 1017.3
20260504193615 67 314 4.3 9.6 0.00 0.00 0.00 27 1017.0
20260504193114 67 327 2.6 7.0 0.00 0.00 0.00 29 1017.0
20260504192612 67 281 2.6 9.6 0.00 0.00 0.00 29 1016.9
20260504192110 68 305 2.6 5.2 0.00 0.00 0.00 29 1016.9
20260504191608 68 301 0.9 7.0 0.00 0.00 0.00 28 1016.8
20260504191103 68 269 0.9 3.5 0.00 0.00 0.00 29 1016.7
20260504190600 68 222 2.6 7.8 0.00 0.00 0.00 27 1016.6
20260504190056 69 275 3.5 5.2 0.00 0.00 0.00 27 1016.7
20260504185553 69 234 3.5 6.1 0.00 0.00 0.00 27 1016.4
20260504185050 70 296 3.5 5.2 0.00 0.00 0.00 27 1016.4
20260504184545 70 247 2.6 6.1 0.00 0.00 0.00 27 1016.3
20260504184041 70 288 2.6 6.1 0.00 0.00 0.00 27 1016.7
20260504183538 71 239 6.1 7.8 0.00 0.00 0.00 26 1016.6
20260504183036 70 233 1.7 2.6 0.00 0.00 0.00 27 1016.7
20260504182532 70 289 1.7 3.5 0.00 0.00 0.00 26 1016.7
20260504182030 70 309 1.7 3.5 0.00 0.00 0.00 26 1016.7
20260504181527 71 251 4.3 7.0 0.00 0.00 0.00 25 1016.8
20260504181026 70 253 0.9 6.1 0.00 0.00 0.00 26 1016.6
20260504180524 70 261 1.7 2.6 0.00 0.00 0.00 25 1016.8
20260504180022 71 256 3.5 5.2 0.00 0.00 0.00 25 1016.7
20260504175519 70 266 1.7 3.5 0.00 0.00 0.00 26 1016.7
20260504175016 70 222 1.7 2.6 0.00 0.00 0.00 27 1016.8
20260504174514 70 220 0.9 5.2 0.00 0.00 0.00 27 1016.7
20260504174011 70 259 1.7 1.7 0.00 0.00 0.00 26 1016.8